Location: Lango�lan
(48.1202°N, 3.2340°W)
Time: 20:12:02
(UTC+00:00)

Meteor 2-10 - Pass Details

Date: 23 October 2019
Orbit: 738 x 868 km, 81.2° (Epoch: 21 November)

Event Time Altitude Azimuth Distance (km) Brightness Sun altitude
Rises 04:57:23 0° 346° (NNW) 3,241 7.1 -18.4°
Reaches altitude 10° 04:59:43 10° 343° (NNW) 2,327 6.4 -18.0°
Maximum altitude 05:04:55 67° 262° (W) 858 4.0 -17.1°
Drops below altitude 10° 05:10:16 10° 181° (S) 2,394 6.5 -16.2°
Sets 05:12:42 0° 179° (S) 3,342 7.3 -15.8°
